;H (mm);Q (m3/s);stage (m)
;;;
2/3/2014 12:00;0.00;1.15;0.108
2/3/2014 12:15;0.00;1.16;0.109
2/3/2014 12:30;0.00;1.16;0.109
2/3/2014 12:45;0.00;1.13;0.107
2/3/2014 13:00;0.00;1.14;0.108
2/3/2014 13:15;0.00;1.03;0.099
2/3/2014 13:30;0.00;1.10;0.105
2/3/2014 13:45;0.00;1.05;0.101
2/3/2014 14:00;0.00;1.05;0.101
2/3/2014 14:15;0.00;1.10;0.105
2/3/2014 14:30;0.20;1.05;0.102
2/3/2014 14:45;0.00;1.01;0.098
2/3/2014 15:00;0.00;1.02;0.099
2/3/2014 15:15;0.00;1.07;0.103
2/3/2014 15:30;0.40;1.01;0.098
2/3/2014 15:45;0.00;0.98;0.096
2/3/2014 16:00;0.20;1.15;0.108
2/3/2014 16:15;0.20;1.07;0.103
2/3/2014 16:30;0.00;1.03;0.1
2/3/2014 16:45;0.00;1.08;0.104
2/3/2014 17:00;0.00;1.08;0.103
2/3/2014 17:15;0.00;0.95;0.094
2/3/2014 17:30;0.00;1.03;0.1
2/3/2014 17:45;0.00;1.09;0.104
2/3/2014 18:00;0.00;1.08;0.104
2/3/2014 18:15;0.00;0.94;0.093
2/3/2014 18:30;0.00;1.04;0.101
2/3/2014 18:45;0.00;1.00;0.097
2/3/2014 19:00;0.00;0.96;0.094
2/3/2014 19:15;0.00;1.02;0.099
2/3/2014 19:30;0.00;1.00;0.097
2/3/2014 19:45;0.20;1.02;0.099
2/3/2014 20:00;0.20;1.10;0.105
2/3/2014 20:15;0.60;1.00;0.098
2/3/2014 20:30;0.20;0.94;0.093
2/3/2014 20:45;0.20;0.97;0.095
2/3/2014 21:00;0.20;0.97;0.095
2/3/2014 21:15;0.20;0.96;0.094
2/3/2014 21:30;0.40;1.08;0.103
2/3/2014 21:45;1.20;0.98;0.096
2/3/2014 22:00;1.00;1.12;0.107
2/3/2014 22:15;1.80;1.09;0.104
2/3/2014 22:30;0.00;1.17;0.11
2/3/2014 22:45;0.00;1.17;0.11
2/3/2014 23:00;0.20;1.09;0.104
2/3/2014 23:15;0.00;1.33;0.121
2/3/2014 23:30;0.40;1.21;0.113
2/3/2014 23:45;0.00;1.33;0.121
3/3/2014 00:00;0.00;1.15;0.109
3/3/2014 00:15;0.00;1.25;0.116
3/3/2014 00:30;0.00;1.22;0.114
3/3/2014 00:45;0.00;1.15;0.109
3/3/2014 01:00;0.20;1.09;0.104
3/3/2014 01:15;0.00;1.09;0.104
3/3/2014 01:30;0.00;1.13;0.107
3/3/2014 01:45;0.40;1.04;0.101
3/3/2014 02:00;3.00;1.17;0.11
3/3/2014 02:15;8.40;1.35;0.123
3/3/2014 02:30;3.20;1.57;0.137
3/3/2014 02:45;4.00;1.84;0.155
3/3/2014 03:00;2.40;2.20;-2.357
3/3/2014 03:15;1.60;2.57;0.199
3/3/2014 03:30;0.40;3.37;0.242
3/3/2014 03:45;1.20;2.72;0.207
3/3/2014 04:00;1.80;3.46;0.247
3/3/2014 04:15;1.00;3.33;0.24
3/3/2014 04:30;1.20;3.43;0.245
3/3/2014 04:45;0.20;3.07;0.226
3/3/2014 05:00;0.20;3.35;0.241
3/3/2014 05:15;0.20;3.29;0.238
3/3/2014 05:30;0.80;3.12;0.229
3/3/2014 05:45;0.00;3.95;0.272
3/3/2014 06:00;0.00;3.55;0.252
3/3/2014 06:15;0.00;3.36;0.242
3/3/2014 06:30;0.80;3.26;0.236
3/3/2014 06:45;2.60;3.27;0.237
3/3/2014 07:00;1.60;3.33;0.24
3/3/2014 07:15;0.80;3.49;0.249
3/3/2014 07:30;0.20;3.19;0.233
3/3/2014 07:45;0.00;3.92;0.271
3/3/2014 08:00;0.60;3.62;0.255
3/3/2014 08:15;0.20;3.26;0.236
3/3/2014 08:30;0.60;3.25;0.236
3/3/2014 08:45;1.40;3.18;0.232
3/3/2014 09:00;1.80;3.35;0.241
3/3/2014 09:15;1.00;3.29;0.238
3/3/2014 09:30;3.20;3.34;0.241
3/3/2014 09:45;0.60;3.08;0.227
3/3/2014 10:00;0.80;3.10;0.228
3/3/2014 10:15;0.00;3.25;0.236
3/3/2014 10:30;0.00;3.08;0.227
3/3/2014 10:45;0.00;2.99;0.222
3/3/2014 11:00;0.20;2.97;0.221
3/3/2014 11:15;0.20;2.97;0.221
3/3/2014 11:30;0.00;2.98;0.221
3/3/2014 11:45;1.00;3.21;0.234
3/3/2014 12:00;0.60;3.01;0.223
3/3/2014 12:15;1.60;2.94;0.219
3/3/2014 12:30;1.40;3.04;0.225
3/3/2014 12:45;0.60;3.16;0.231
3/3/2014 13:00;4.80;3.02;0.224
3/3/2014 13:15;2.40;3.15;0.23
3/3/2014 13:30;0.60;3.22;0.234
3/3/2014 13:45;0.40;3.03;0.224
3/3/2014 14:00;0.20;3.02;0.223
3/3/2014 14:15;0.20;3.51;0.25
3/3/2014 14:30;0.00;3.61;0.255
3/3/2014 14:45;0.20;3.22;0.234
3/3/2014 15:00;0.00;2.77;0.21
3/3/2014 15:15;0.00;3.07;0.226
3/3/2014 15:30;0.00;3.27;0.237
3/3/2014 15:45;0.00;3.30;0.239
3/3/2014 16:00;0.00;3.54;0.251
3/3/2014 16:15;0.00;3.47;0.247
3/3/2014 16:30;0.00;3.25;0.236
3/3/2014 16:45;0.00;3.44;0.246
3/3/2014 17:00;0.00;3.15;0.23
3/3/2014 17:15;0.00;3.23;0.235
3/3/2014 17:30;0.00;3.47;0.248
3/3/2014 17:45;0.00;3.39;0.243
3/3/2014 18:00;0.00;3.48;0.248
3/3/2014 18:15;0.00;2.90;0.217
3/3/2014 18:30;0.00;3.19;0.232
3/3/2014 18:45;0.00;3.53;0.251
3/3/2014 19:00;0.00;3.20;0.233
3/3/2014 19:15;0.00;3.51;0.25
3/3/2014 19:30;0.00;3.41;0.244
3/3/2014 19:45;0.00;3.09;0.227
3/3/2014 20:00;0.00;3.27;0.237
3/3/2014 20:15;0.00;3.41;0.244
3/3/2014 20:30;0.00;3.18;0.232
3/3/2014 20:45;0.00;3.23;0.235
3/3/2014 21:00;0.00;3.27;0.237
3/3/2014 21:15;0.00;3.28;0.238
3/3/2014 21:30;0.00;3.52;0.25
3/3/2014 21:45;0.00;3.28;0.237
3/3/2014 22:00;0.00;3.06;0.225
3/3/2014 22:15;0.00;3.42;0.245
3/3/2014 22:30;0.00;3.42;0.245
3/3/2014 22:45;0.00;3.36;0.242
3/3/2014 23:00;0.20;3.16;0.231
3/3/2014 23:15;0.40;3.28;0.237
3/3/2014 23:30;0.40;3.00;0.222
3/3/2014 23:45;1.80;3.19;0.233
4/3/2014 00:00;1.40;2.90;0.217
4/3/2014 00:15;1.20;3.42;0.245
4/3/2014 00:30;0.60;3.47;0.248
4/3/2014 00:45;0.40;3.38;0.243
4/3/2014 01:00;0.40;3.54;0.251
4/3/2014 01:15;0.00;3.20;0.233
4/3/2014 01:30;0.00;3.63;0.256
4/3/2014 01:45;0.00;3.70;0.26
4/3/2014 02:00;0.00;3.05;0.225
4/3/2014 02:15;0.00;3.39;0.243
4/3/2014 02:30;0.00;3.07;0.226
4/3/2014 02:45;0.00;3.43;0.245
4/3/2014 03:00;0.00;3.41;-2.227
4/3/2014 03:15;0.00;3.39;0.243
4/3/2014 03:30;0.00;2.95;0.22
4/3/2014 03:45;0.00;3.10;0.228
4/3/2014 04:00;0.00;2.87;0.215
4/3/2014 04:15;0.00;3.20;0.233
4/3/2014 04:30;0.00;3.19;0.233
4/3/2014 04:45;0.00;3.01;0.223
4/3/2014 05:00;0.00;3.05;0.225
4/3/2014 05:15;0.00;2.96;0.22
4/3/2014 05:30;0.00;2.85;0.214
4/3/2014 05:45;0.00;2.99;0.222
4/3/2014 06:00;0.00;3.01;0.223
4/3/2014 06:15;0.00;2.79;0.211
4/3/2014 06:30;0.00;2.98;0.222
4/3/2014 06:45;0.00;3.09;0.228
4/3/2014 07:00;0.00;3.13;0.23
4/3/2014 07:15;0.00;2.65;0.203
4/3/2014 07:30;0.00;2.74;0.208
4/3/2014 07:45;0.00;2.49;0.194
4/3/2014 08:00;0.00;2.74;0.208
4/3/2014 08:15;0.00;2.84;0.214
4/3/2014 08:30;0.00;2.65;0.203
4/3/2014 08:45;0.00;2.58;0.199
4/3/2014 09:00;0.00;2.75;0.209
4/3/2014 09:15;0.00;2.90;0.217
4/3/2014 09:30;0.00;2.67;0.204
4/3/2014 09:45;0.00;2.71;0.207
4/3/2014 10:00;0.00;2.86;0.214
4/3/2014 10:15;0.00;2.71;0.206
4/3/2014 10:30;0.00;2.80;0.212
4/3/2014 10:45;0.00;2.75;0.209
4/3/2014 11:00;0.00;3.08;0.227
4/3/2014 11:15;0.00;2.61;0.201
4/3/2014 11:30;0.20;3.15;0.23
4/3/2014 11:45;0.00;2.81;0.212
4/3/2014 12:00;0.00;2.73;0.207
4/3/2014 12:15;0.00;2.57;0.199
4/3/2014 12:30;0.00;3.09;0.227
4/3/2014 12:45;0.40;2.93;0.219
4/3/2014 13:00;0.20;2.68;0.205
4/3/2014 13:15;0.00;2.77;0.21
4/3/2014 13:30;1.00;2.61;0.201
4/3/2014 13:45;0.60;2.46;0.192
4/3/2014 14:00;0.40;2.51;0.195
4/3/2014 14:15;1.20;2.94;0.219
4/3/2014 14:30;1.20;2.50;0.194
4/3/2014 14:45;3.60;2.96;0.22
4/3/2014 15:00;0.80;3.03;0.224
4/3/2014 15:15;0.60;2.72;0.207
4/3/2014 15:30;1.20;3.41;0.244
4/3/2014 15:45;1.20;3.66;0.257
4/3/2014 16:00;2.40;3.25;0.236
4/3/2014 16:15;3.80;3.43;0.245
4/3/2014 16:30;2.00;3.26;0.236
4/3/2014 16:45;1.60;3.27;0.237
4/3/2014 17:00;2.60;3.39;0.243
4/3/2014 17:15;3.00;3.43;0.246
4/3/2014 17:30;2.20;3.37;0.242
4/3/2014 17:45;0.40;3.43;0.245
4/3/2014 18:00;0.00;3.23;0.235
4/3/2014 18:15;0.00;3.94;0.272
4/3/2014 18:30;0.00;3.89;0.269
4/3/2014 18:45;0.00;4.31;0.29
4/3/2014 19:00;0.00;4.23;0.286
4/3/2014 19:15;0.00;3.93;0.271
4/3/2014 19:30;0.00;3.80;0.265
4/3/2014 19:45;0.00;3.48;0.248
4/3/2014 20:00;0.00;4.50;0.299
4/3/2014 20:15;0.00;4.15;0.282
4/3/2014 20:30;0.00;3.99;0.274
4/3/2014 20:45;0.20;3.76;0.262
4/3/2014 21:00;0.00;3.77;0.263
4/3/2014 21:15;0.00;3.56;0.252
4/3/2014 21:30;0.00;3.96;0.272
4/3/2014 21:45;0.00;3.88;0.269
4/3/2014 22:00;0.00;3.48;0.248
4/3/2014 22:15;0.00;3.31;0.239
4/3/2014 22:30;0.00;3.11;0.228
4/3/2014 22:45;0.00;3.38;0.243
4/3/2014 23:00;0.00;3.49;0.249
4/3/2014 23:15;0.00;3.57;0.253
4/3/2014 23:30;0.00;3.02;0.224
4/3/2014 23:45;0.00;2.95;0.22
5/3/2014 00:00;0.00;3.18;0.232
5/3/2014 00:15;0.00;3.41;0.245
5/3/2014 00:30;0.00;3.31;0.239
5/3/2014 00:45;0.00;3.50;0.249
5/3/2014 01:00;0.00;3.43;0.245
5/3/2014 01:15;0.00;3.56;0.252
5/3/2014 01:30;0.00;3.11;0.228
5/3/2014 01:45;0.00;3.37;0.242
5/3/2014 02:00;0.00;3.16;0.231
5/3/2014 02:15;0.00;3.06;0.226
5/3/2014 02:30;0.00;3.37;0.242
5/3/2014 02:45;0.00;3.08;0.227
5/3/2014 03:00;0.00;3.17;0.231
5/3/2014 03:15;0.00;3.26;0.236
5/3/2014 03:30;0.00;3.07;0.226
5/3/2014 03:45;0.00;3.02;0.223
5/3/2014 04:00;0.00;3.03;0.224
5/3/2014 04:15;0.00;2.89;0.217
5/3/2014 04:30;0.00;3.10;0.228
5/3/2014 04:45;0.00;3.07;0.226
5/3/2014 05:00;0.00;3.09;-1.7
5/3/2014 05:15;0.00;3.12;0.229
5/3/2014 05:30;0.00;3.10;0.228
5/3/2014 05:45;0.00;3.19;-2.28
5/3/2014 06:00;0.00;3.27;0.237
5/3/2014 06:15;0.00;3.08;0.227
5/3/2014 06:30;0.00;2.97;0.221
5/3/2014 06:45;0.00;2.79;0.211
5/3/2014 07:00;0.00;3.01;0.223
5/3/2014 07:15;0.00;2.91;0.217
5/3/2014 07:30;0.00;3.34;0.241
5/3/2014 07:45;0.00;2.82;0.213
5/3/2014 08:00;0.00;2.94;0.219
5/3/2014 08:15;0.00;2.89;0.216
5/3/2014 08:30;0.00;2.91;0.217
5/3/2014 08:45;0.00;2.59;0.2
5/3/2014 09:00;0.00;2.90;0.217
5/3/2014 09:15;0.00;2.71;0.206
5/3/2014 09:30;0.00;3.30;0.238
5/3/2014 09:45;0.00;2.51;0.195
5/3/2014 10:00;0.40;2.92;0.218
5/3/2014 10:15;0.80;2.82;0.213
5/3/2014 10:30;0.20;2.78;0.21
5/3/2014 10:45;0.60;2.65;0.203
5/3/2014 11:00;0.00;2.68;0.204
5/3/2014 11:15;0.00;2.76;0.209
5/3/2014 11:30;0.00;2.76;0.209
5/3/2014 11:45;0.00;2.64;0.202
5/3/2014 12:00;0.00;2.50;0.195
5/3/2014 12:15;0.00;2.67;0.204
5/3/2014 12:30;0.00;2.40;0.188
5/3/2014 12:45;0.00;2.71;0.207
5/3/2014 13:00;0.00;2.62;0.201
5/3/2014 13:15;0.00;2.75;0.209
5/3/2014 13:30;0.00;3.47;0.248
5/3/2014 13:45;0.00;2.61;0.201
5/3/2014 14:00;0.00;2.72;0.207
5/3/2014 14:15;0.20;2.68;0.205
5/3/2014 14:30;0.00;2.72;0.207
5/3/2014 14:45;0.00;2.54;0.197
5/3/2014 15:00;0.00;2.65;-1.772
5/3/2014 15:15;0.00;2.75;0.209
5/3/2014 15:30;0.00;2.90;0.217
5/3/2014 15:45;0.00;2.39;0.188
5/3/2014 16:00;0.00;2.83;0.213
5/3/2014 16:15;0.00;2.83;0.213
5/3/2014 16:30;0.00;2.89;0.216
5/3/2014 16:45;0.00;2.88;0.216
5/3/2014 17:00;0.00;2.82;0.213
5/3/2014 17:15;0.00;2.97;0.221
5/3/2014 17:30;0.00;2.55;0.197
5/3/2014 17:45;0.00;2.42;0.19
5/3/2014 18:00;0.00;2.92;0.218
5/3/2014 18:15;0.00;2.53;0.196
5/3/2014 18:30;0.00;2.36;0.186
5/3/2014 18:45;0.00;2.38;0.187
5/3/2014 19:00;0.00;2.69;0.205
5/3/2014 19:15;0.00;2.39;0.188
5/3/2014 19:30;0.00;2.82;0.213
5/3/2014 19:45;0.00;2.91;0.217
5/3/2014 20:00;0.00;2.88;0.216
5/3/2014 20:15;0.00;2.33;0.185
5/3/2014 20:30;0.00;2.46;-2.31
5/3/2014 20:45;0.00;2.58;0.199
5/3/2014 21:00;0.00;2.20;0.177
5/3/2014 21:15;0.00;2.49;0.194
5/3/2014 21:30;0.00;2.40;0.189
5/3/2014 21:45;0.00;2.47;0.193
5/3/2014 22:00;0.00;3.00;0.223
5/3/2014 22:15;0.00;2.58;0.199
5/3/2014 22:30;0.00;2.40;0.188
5/3/2014 22:45;0.00;2.14;0.173
5/3/2014 23:00;0.00;2.54;0.197
5/3/2014 23:15;0.00;2.36;0.186
5/3/2014 23:30;0.00;2.06;0.169
5/3/2014 23:45;0.00;2.56;0.198
6/3/2014 00:00;0.00;3.07;0.226
6/3/2014 00:15;0.00;2.91;0.217
6/3/2014 00:30;0.00;2.70;0.206
6/3/2014 00:45;0.00;2.52;-1.789
6/3/2014 01:00;0.80;2.34;-1.803
6/3/2014 01:15;1.00;2.16;0.175
6/3/2014 01:30;0.00;2.29;0.182
6/3/2014 01:45;0.00;2.35;0.186
6/3/2014 02:00;0.00;2.42;0.19
6/3/2014 02:15;0.00;2.40;0.189
6/3/2014 02:30;0.00;2.42;0.19
6/3/2014 02:45;0.00;2.77;0.21
6/3/2014 03:00;0.20;2.24;0.179
6/3/2014 03:15;0.00;2.36;0.187
6/3/2014 03:30;1.20;2.36;0.187
6/3/2014 03:45;0.20;2.41;0.189
6/3/2014 04:00;0.00;2.32;0.184
6/3/2014 04:15;0.00;2.82;0.212
6/3/2014 04:30;0.00;2.21;0.178
6/3/2014 04:45;0.00;2.45;0.192
6/3/2014 05:00;0.00;2.09;0.17
6/3/2014 05:15;0.00;2.50;0.194
6/3/2014 05:30;0.00;2.35;0.186
6/3/2014 05:45;1.20;2.03;0.167
6/3/2014 06:00;2.00;2.19;0.176
6/3/2014 06:15;1.60;2.35;0.186
6/3/2014 06:30;0.60;2.58;0.199
6/3/2014 06:45;0.80;2.74;0.208
6/3/2014 07:00;0.40;2.48;0.193
6/3/2014 07:15;0.20;2.59;0.2
6/3/2014 07:30;0.00;2.46;0.192
6/3/2014 07:45;0.00;2.70;0.206
6/3/2014 08:00;0.00;2.70;0.206
6/3/2014 08:15;0.00;2.38;0.187
6/3/2014 08:30;0.00;1.98;0.164
6/3/2014 08:45;0.00;2.10;0.171
6/3/2014 09:00;0.00;2.50;0.194
6/3/2014 09:15;0.00;2.37;0.187
6/3/2014 09:30;0.00;2.56;0.198
6/3/2014 09:45;0.00;2.25;0.18
6/3/2014 10:00;0.00;2.49;0.194
6/3/2014 10:15;0.00;2.30;0.183
6/3/2014 10:30;0.00;2.30;0.183
6/3/2014 10:45;0.00;2.29;0.182
6/3/2014 11:00;0.00;2.25;0.18
6/3/2014 11:15;0.00;2.23;0.179
6/3/2014 11:30;0.00;2.62;0.201
6/3/2014 11:45;0.00;2.12;0.172
6/3/2014 12:00;0.00;2.34;0.185
6/3/2014 12:15;0.00;2.06;0.168
6/3/2014 12:30;0.00;2.21;0.177
6/3/2014 12:45;0.00;2.19;0.176
6/3/2014 13:00;0.00;2.30;0.183
6/3/2014 13:15;0.00;2.28;0.181
6/3/2014 13:30;0.00;2.19;0.177
6/3/2014 13:45;1.00;1.88;0.157
6/3/2014 14:00;1.00;2.33;0.185
6/3/2014 14:15;1.40;2.13;0.172
6/3/2014 14:30;0.40;2.21;0.177
6/3/2014 14:45;2.00;2.61;0.201
6/3/2014 15:00;0.00;2.47;0.193
6/3/2014 15:15;0.00;2.00;0.165
6/3/2014 15:30;0.00;1.92;0.16
6/3/2014 15:45;0.00;2.06;0.168
6/3/2014 16:00;0.00;2.12;0.172
6/3/2014 16:15;0.00;2.08;0.17
6/3/2014 16:30;0.00;1.81;0.153
6/3/2014 16:45;1.00;1.97;0.163
6/3/2014 17:00;0.00;2.01;0.165
6/3/2014 17:15;0.00;1.91;0.159
6/3/2014 17:30;0.40;2.41;0.189
6/3/2014 17:45;0.00;1.89;0.158
6/3/2014 18:00;0.00;2.31;0.183
6/3/2014 18:15;0.40;2.04;0.167
6/3/2014 18:30;0.00;2.21;0.178
6/3/2014 18:45;0.00;2.42;0.19
6/3/2014 19:00;0.20;2.34;0.185
6/3/2014 19:15;1.60;2.09;0.17
6/3/2014 19:30;1.00;1.89;0.158
6/3/2014 19:45;0.40;2.63;0.202
6/3/2014 20:00;0.00;1.99;0.164
6/3/2014 20:15;0.20;1.93;0.161
6/3/2014 20:30;0.60;1.91;0.159
6/3/2014 20:45;1.00;2.07;0.169
6/3/2014 21:00;1.80;2.21;0.177
6/3/2014 21:15;1.20;2.40;0.188
6/3/2014 21:30;0.20;2.47;0.193
6/3/2014 21:45;0.40;2.48;0.193
6/3/2014 22:00;1.00;2.91;0.217
6/3/2014 22:15;0.40;2.96;0.22
6/3/2014 22:30;0.40;3.11;0.228
6/3/2014 22:45;1.20;2.85;0.214
6/3/2014 23:00;0.20;2.72;0.207
6/3/2014 23:15;0.40;2.50;0.194
6/3/2014 23:30;0.80;2.57;0.198
6/3/2014 23:45;0.80;2.60;0.2
7/3/2014 00:00;2.00;2.51;0.195
7/3/2014 00:15;3.80;2.89;0.217
7/3/2014 00:30;2.20;2.77;0.21
7/3/2014 00:45;1.40;2.87;0.215
7/3/2014 01:00;0.20;3.03;0.224
7/3/2014 01:15;0.00;2.92;0.218
7/3/2014 01:30;0.00;2.71;0.206
7/3/2014 01:45;0.00;2.95;0.22
7/3/2014 02:00;0.00;2.90;0.217
7/3/2014 02:15;0.00;2.68;0.205
7/3/2014 02:30;0.20;2.62;0.201
7/3/2014 02:45;0.40;2.90;0.217
7/3/2014 03:00;0.80;2.73;0.207
7/3/2014 03:15;2.00;2.59;0.2
7/3/2014 03:30;1.60;2.65;0.203
7/3/2014 03:45;2.00;3.47;0.247
7/3/2014 04:00;0.00;3.51;0.249
7/3/2014 04:15;0.00;3.37;0.242
7/3/2014 04:30;0.00;3.67;0.258
7/3/2014 04:45;0.00;3.04;0.224
7/3/2014 05:00;0.00;3.36;0.242
7/3/2014 05:15;0.00;2.76;0.209
7/3/2014 05:30;0.00;3.28;0.237
7/3/2014 05:45;0.00;2.84;0.214
7/3/2014 06:00;0.00;2.76;0.209
7/3/2014 06:15;0.00;3.12;0.229
7/3/2014 06:30;0.00;2.78;0.211
7/3/2014 06:45;0.60;2.76;0.209
7/3/2014 07:00;0.40;2.82;-1.752
7/3/2014 07:15;0.40;2.88;0.216
7/3/2014 07:30;0.00;2.59;0.2
7/3/2014 07:45;0.00;2.68;-2.238
7/3/2014 08:00;0.00;2.77;0.21
7/3/2014 08:15;0.00;2.94;0.219
7/3/2014 08:30;0.00;2.67;0.204
7/3/2014 08:45;0.00;3.00;0.222
7/3/2014 09:00;0.00;2.71;0.206
7/3/2014 09:15;0.00;2.74;0.208
7/3/2014 09:30;0.00;2.83;0.213
7/3/2014 09:45;0.00;2.45;0.191
7/3/2014 10:00;0.00;2.58;0.199
7/3/2014 10:15;0.00;3.14;0.23
7/3/2014 10:30;0.00;2.72;0.207
7/3/2014 10:45;0.00;2.98;0.222
7/3/2014 11:00;0.00;2.59;0.2
7/3/2014 11:15;0.00;3.07;0.226
7/3/2014 11:30;0.00;2.61;0.201
7/3/2014 11:45;0.00;2.67;0.204
7/3/2014 12:00;0.00;2.71;0.206
7/3/2014 12:15;0.00;2.43;0.191
7/3/2014 12:30;0.00;2.89;0.217
7/3/2014 12:45;0.00;2.35;0.186
7/3/2014 13:00;0.00;2.44;0.191
7/3/2014 13:15;0.00;2.63;0.202
7/3/2014 13:30;0.00;2.65;0.203
7/3/2014 13:45;0.00;2.69;0.205
7/3/2014 14:00;0.00;2.55;0.198
7/3/2014 14:15;0.00;2.80;0.212
7/3/2014 14:30;0.00;2.55;0.197
7/3/2014 14:45;0.00;3.14;0.23
7/3/2014 15:00;0.00;2.78;0.21
7/3/2014 15:15;0.00;2.44;0.191
7/3/2014 15:30;0.00;2.55;0.197
7/3/2014 15:45;0.00;2.62;0.202
7/3/2014 16:00;0.00;2.58;0.199
7/3/2014 16:15;0.00;2.62;0.202
7/3/2014 16:30;0.00;2.86;0.215
7/3/2014 16:45;0.20;2.50;0.195
7/3/2014 17:00;0.00;2.34;0.185
7/3/2014 17:15;0.00;2.52;0.196
7/3/2014 17:30;0.00;2.59;-2.278
7/3/2014 17:45;0.00;2.66;0.204
7/3/2014 18:00;0.00;2.74;0.208
7/3/2014 18:15;0.00;2.47;0.193
7/3/2014 18:30;0.00;2.66;0.203
7/3/2014 18:45;0.00;2.49;0.194
7/3/2014 19:00;0.00;2.57;0.198
7/3/2014 19:15;0.00;2.62;0.201
7/3/2014 19:30;0.00;2.53;0.196
7/3/2014 19:45;0.00;2.63;0.202
7/3/2014 20:00;0.00;2.63;0.202
7/3/2014 20:15;0.00;2.74;0.208
7/3/2014 20:30;0.00;2.36;0.187
7/3/2014 20:45;0.00;2.60;0.2
7/3/2014 21:00;0.00;2.62;0.201
7/3/2014 21:15;0.00;2.52;0.196
7/3/2014 21:30;0.00;2.28;0.181
7/3/2014 21:45;0.00;2.60;0.2
7/3/2014 22:00;0.00;2.56;0.198
7/3/2014 22:15;0.00;2.49;0.194
7/3/2014 22:30;0.00;2.84;0.213
7/3/2014 22:45;0.00;2.49;0.194
7/3/2014 23:00;0.00;2.40;0.189
7/3/2014 23:15;0.00;2.64;0.202
7/3/2014 23:30;0.00;2.44;0.191
7/3/2014 23:45;0.00;2.33;0.185
8/3/2014 00:00;0.00;2.31;0.184
8/3/2014 00:15;0.00;2.27;0.181
8/3/2014 00:30;0.00;2.62;0.201
8/3/2014 00:45;0.00;2.28;0.182
8/3/2014 01:00;0.00;2.39;0.188
8/3/2014 01:15;0.00;2.29;0.182
8/3/2014 01:30;0.00;2.25;0.18
8/3/2014 01:45;0.00;2.45;0.191
8/3/2014 02:00;0.00;2.42;0.19
8/3/2014 02:15;0.00;2.33;0.185
8/3/2014 02:30;0.00;2.35;0.186
8/3/2014 02:45;0.00;2.31;0.183
8/3/2014 03:00;0.00;2.36;0.186
8/3/2014 03:15;0.00;2.31;0.183
8/3/2014 03:30;0.00;2.30;0.183
8/3/2014 03:45;0.00;2.46;0.192
8/3/2014 04:00;0.00;2.18;0.176
8/3/2014 04:15;0.00;2.42;0.19
8/3/2014 04:30;0.00;2.35;0.186
8/3/2014 04:45;0.00;2.24;0.179
8/3/2014 05:00;0.00;2.43;0.19
8/3/2014 05:15;0.00;2.27;0.181
8/3/2014 05:30;0.00;2.20;0.177
8/3/2014 05:45;0.00;2.22;0.178
8/3/2014 06:00;0.00;2.11;0.171
8/3/2014 06:15;0.00;2.37;0.187
8/3/2014 06:30;0.00;2.24;0.18
8/3/2014 06:45;0.00;2.18;0.176
8/3/2014 07:00;0.00;2.16;0.175
8/3/2014 07:15;0.00;2.30;0.183
8/3/2014 07:30;0.00;1.99;0.164
8/3/2014 07:45;0.00;2.28;0.182
8/3/2014 08:00;0.00;2.17;0.175
8/3/2014 08:15;0.00;2.50;0.195
8/3/2014 08:30;0.00;2.41;0.189
8/3/2014 08:45;0.00;2.55;0.197
8/3/2014 09:00;0.00;2.47;0.193
8/3/2014 09:15;0.00;2.40;0.189
8/3/2014 09:30;0.00;2.11;0.172
8/3/2014 09:45;0.00;2.25;0.18
8/3/2014 10:00;0.00;2.39;0.188
8/3/2014 10:15;0.00;2.24;0.179
8/3/2014 10:30;0.00;2.19;0.176
8/3/2014 10:45;0.00;2.39;0.188
8/3/2014 11:00;0.00;2.26;0.18
8/3/2014 11:15;0.00;2.41;0.189
8/3/2014 11:30;0.00;2.48;0.193
8/3/2014 11:45;0.00;2.33;0.185
8/3/2014 12:00;0.00;2.31;0.183
8/3/2014 12:15;0.00;2.31;0.183
8/3/2014 12:30;0.00;2.24;0.179
8/3/2014 12:45;0.00;2.23;0.179
8/3/2014 13:00;0.00;2.12;0.172
8/3/2014 13:15;0.00;2.21;0.177
8/3/2014 13:30;0.00;2.32;0.184
8/3/2014 13:45;0.00;2.24;0.179
8/3/2014 14:00;0.00;2.14;0.173
8/3/2014 14:15;0.00;2.21;0.177
8/3/2014 14:30;0.00;2.56;0.198
8/3/2014 14:45;0.00;2.33;0.185
8/3/2014 15:00;0.00;2.21;0.177
8/3/2014 15:15;0.00;2.34;0.185
8/3/2014 15:30;0.00;2.02;0.166
8/3/2014 15:45;0.00;2.20;0.177
8/3/2014 16:00;0.00;1.89;0.158
8/3/2014 16:15;0.00;2.74;0.208
8/3/2014 16:30;0.00;2.44;0.191
8/3/2014 16:45;0.00;2.37;0.187
8/3/2014 17:00;0.00;2.22;0.178
8/3/2014 17:15;0.00;2.39;-2.293
8/3/2014 17:30;0.00;2.55;0.198
8/3/2014 17:45;0.00;2.60;0.2
8/3/2014 18:00;0.00;2.16;0.174
8/3/2014 18:15;0.00;2.57;0.199
8/3/2014 18:30;0.20;2.60;0.2
8/3/2014 18:45;0.00;2.22;0.178
8/3/2014 19:00;0.00;1.93;0.161
8/3/2014 19:15;0.00;2.23;0.179
8/3/2014 19:30;0.00;2.35;0.186
8/3/2014 19:45;0.00;2.04;0.167
8/3/2014 20:00;0.00;2.37;0.187
8/3/2014 20:15;0.00;2.14;0.173
8/3/2014 20:30;0.00;2.47;0.193
8/3/2014 20:45;0.00;2.31;0.183
8/3/2014 21:00;0.00;2.77;0.21
8/3/2014 21:15;0.00;2.35;0.186
8/3/2014 21:30;0.00;2.37;0.187
8/3/2014 21:45;0.00;2.26;0.18
8/3/2014 22:00;0.00;2.59;0.2
8/3/2014 22:15;0.00;2.59;0.2
8/3/2014 22:30;0.00;2.48;0.194
8/3/2014 22:45;0.00;2.40;0.189
8/3/2014 23:00;0.00;2.18;0.175
8/3/2014 23:15;0.00;2.27;0.181
8/3/2014 23:30;0.00;1.95;0.162
8/3/2014 23:45;0.00;2.35;0.186
9/3/2014 00:00;0.00;2.23;0.179
9/3/2014 00:15;0.00;2.12;0.172
9/3/2014 00:30;0.00;2.08;0.17
9/3/2014 00:45;0.00;2.26;-2.322
9/3/2014 01:00;0.00;2.43;0.19
9/3/2014 01:15;0.00;2.16;0.174
9/3/2014 01:30;0.00;2.24;0.179
9/3/2014 01:45;0.00;2.33;0.184
9/3/2014 02:00;0.00;2.20;0.177
9/3/2014 02:15;0.00;2.29;0.182
9/3/2014 02:30;0.00;2.15;0.174
9/3/2014 02:45;0.00;2.42;0.19
9/3/2014 03:00;0.00;2.02;0.166
9/3/2014 03:15;0.00;2.36;0.186
9/3/2014 03:30;0.00;2.14;0.173
9/3/2014 03:45;0.00;2.36;0.186
9/3/2014 04:00;0.00;2.25;0.18
9/3/2014 04:15;0.00;2.23;0.179
9/3/2014 04:30;0.00;1.93;0.16
9/3/2014 04:45;0.00;2.05;0.168
9/3/2014 05:00;0.00;1.79;0.152
9/3/2014 05:15;0.00;2.04;0.167
9/3/2014 05:30;0.00;1.90;0.159
9/3/2014 05:45;0.00;1.97;0.163
9/3/2014 06:00;0.00;2.13;0.173
9/3/2014 06:15;0.00;2.01;0.165
9/3/2014 06:30;0.00;1.92;0.16
9/3/2014 06:45;0.00;1.99;0.164
9/3/2014 07:00;0.00;2.21;0.177
9/3/2014 07:15;0.00;2.27;0.181
9/3/2014 07:30;0.00;2.04;0.167
9/3/2014 07:45;0.00;1.89;0.158
9/3/2014 08:00;0.00;2.02;0.166
9/3/2014 08:15;0.00;1.80;0.152
9/3/2014 08:30;0.00;2.03;0.166
9/3/2014 08:45;0.00;2.08;0.17
9/3/2014 09:00;0.00;2.03;0.167
9/3/2014 09:15;0.00;1.80;0.152
9/3/2014 09:30;0.00;1.83;0.154
9/3/2014 09:45;0.00;1.89;0.158
9/3/2014 10:00;0.00;1.80;0.153
9/3/2014 10:15;0.00;1.92;0.16
9/3/2014 10:30;0.00;1.70;0.146
9/3/2014 10:45;0.00;2.05;0.168
9/3/2014 11:00;0.00;1.90;0.158
9/3/2014 11:15;0.00;1.88;0.157
9/3/2014 11:30;0.00;1.85;0.155
9/3/2014 11:45;0.00;1.99;0.164
9/3/2014 12:00;0.00;1.88;0.157
9/3/2014 12:15;0.00;1.95;0.162
9/3/2014 12:30;0.00;1.84;0.155
9/3/2014 12:45;0.00;1.64;0.142
9/3/2014 13:00;0.00;1.83;0.154
9/3/2014 13:15;0.00;1.96;0.162
9/3/2014 13:30;0.00;1.86;0.156
9/3/2014 13:45;0.00;2.21;0.178
9/3/2014 14:00;0.00;2.10;0.171
9/3/2014 14:15;0.00;1.81;0.153
9/3/2014 14:30;0.00;1.99;0.164
9/3/2014 14:45;0.00;1.75;0.149
9/3/2014 15:00;0.00;1.71;0.146
9/3/2014 15:15;0.00;2.10;0.171
9/3/2014 15:30;0.00;1.72;0.148
9/3/2014 15:45;0.00;1.75;0.149
9/3/2014 16:00;0.00;1.87;0.157
9/3/2014 16:15;0.00;1.88;0.158
9/3/2014 16:30;0.00;1.90;0.159
9/3/2014 16:45;0.00;1.92;0.16
9/3/2014 17:00;0.00;1.76;0.15
9/3/2014 17:15;0.00;1.81;0.153
9/3/2014 17:30;0.00;1.80;0.152
9/3/2014 17:45;0.00;1.95;0.162
9/3/2014 18:00;0.00;1.99;0.164
9/3/2014 18:15;0.00;1.97;0.163
9/3/2014 18:30;0.00;1.85;0.155
9/3/2014 18:45;0.00;1.82;0.154
9/3/2014 19:00;0.00;1.85;0.155
9/3/2014 19:15;0.00;2.02;0.166
9/3/2014 19:30;0.00;1.87;0.157
9/3/2014 19:45;0.00;2.05;0.168
9/3/2014 20:00;0.00;2.00;0.165
9/3/2014 20:15;0.00;2.04;0.167
9/3/2014 20:30;0.00;1.70;0.146
9/3/2014 20:45;0.00;1.83;0.154
9/3/2014 21:00;0.00;1.76;0.15
9/3/2014 21:15;0.00;1.82;0.154
9/3/2014 21:30;0.00;1.77;0.151
9/3/2014 21:45;0.00;1.78;0.151
9/3/2014 22:00;0.00;1.92;0.16
9/3/2014 22:15;0.00;1.86;0.156
9/3/2014 22:30;0.00;1.97;0.163
9/3/2014 22:45;0.00;1.78;0.151
9/3/2014 23:00;0.00;1.91;0.159
9/3/2014 23:15;0.00;1.85;0.156
9/3/2014 23:30;0.00;1.79;0.152
9/3/2014 23:45;0.00;1.84;0.155
10/3/2014 00:00;0.00;1.80;0.152
10/3/2014 00:15;0.00;1.84;0.155
10/3/2014 00:30;0.00;1.85;0.155
10/3/2014 00:45;0.00;1.81;0.153
10/3/2014 01:00;0.00;1.78;0.151
10/3/2014 01:15;0.00;1.78;0.151
10/3/2014 01:30;0.00;1.82;0.154
10/3/2014 01:45;0.00;1.90;0.159
10/3/2014 02:00;0.00;1.72;0.147
10/3/2014 02:15;0.00;1.82;0.154
10/3/2014 02:30;0.00;1.84;0.155
10/3/2014 02:45;0.00;1.83;0.154
10/3/2014 03:00;0.00;1.87;0.157
10/3/2014 03:15;0.00;1.88;0.157
10/3/2014 03:30;0.00;1.73;0.148
10/3/2014 03:45;0.00;1.87;0.157
10/3/2014 04:00;0.00;1.88;0.157
10/3/2014 04:15;0.00;1.79;0.152
10/3/2014 04:30;0.00;1.89;0.158
10/3/2014 04:45;0.00;1.96;0.163
10/3/2014 05:00;0.00;1.75;0.149
10/3/2014 05:15;0.00;1.70;0.146
10/3/2014 05:30;0.00;1.64;0.142
10/3/2014 05:45;0.00;1.89;0.158
10/3/2014 06:00;0.00;1.68;0.145
10/3/2014 06:15;0.00;1.73;0.148
10/3/2014 06:30;0.00;1.66;0.143
10/3/2014 06:45;0.00;2.01;0.165
10/3/2014 07:00;0.00;1.65;0.143
10/3/2014 07:15;0.00;1.80;0.152